Regional Weather Roundup
Issued by NWS Sterling, VA

Home | Current Version | Previous Version | Text Only | Print | Product List | Glossary On
Versions: 1 2 3 4 5 6 7 8 9 10 11 12 13 14 15 16 17 18 19 20 21 22 23 24 25 26
000
ASUS41 KLWX 120111
RWRLWX

REGIONAL WEATHER ROUNDUP
NATIONAL WEATHER SERVICE BALTIMORE MD/WASHINGTON DC
800 PM EST MON DEC 11 2017

Note: "FAIR" indicates few or no clouds below 12,000 feet
with no significant weather and/or obstructions to visibility.
 TC=TEMPERATURE CELSIUS

 * =Non NWS site. Station does not report precipitation (e.g. rain,
    snow, etc.), thunder, or fog.

DCZ001-MDZ009-015-VAZ040>042-051-053>054-120200-
WASHINGTON METRO

CITY           SKY/WX    TMP DP  RH WIND       PRES   REMARKS
WASHINGTON NAT MOCLDY    42  30  62 S10       29.97S
DULLES         PTCLDY    40  29  64 SE8       29.93F
ANDREWS AFB    MOCLDY    37  28  69 S9        29.94F
FT BELVOIR     MOCLDY    40  29  66 SE5       29.96S
QUANTICO       PTCLDY   N/A N/A N/A S9        29.97F
COLLEGE PARK*  CLEAR     36  26  66 CALM      29.96F
LEESBURG*      PTCLDY    41  32  70 S9        29.93F
MANASSAS*      PTCLDY    36  29  75 S8        29.94F
GAITHERSBURG*  CLEAR     37  26  64 SE8       29.93F

$$

MDZ006>007-011-014-120200-
BALTIMORE METRO

CITY           SKY/WX    TMP DP  RH WIND       PRES   REMARKS
BWI AIRPORT    PTCLDY    38  30  73 SE3       29.95F
MD SCIENCE CTR   N/A     42  31  64 MISG      29.96F
MARTIN STATE   CLEAR     41  32  70 SE10      29.99R
ANNAPOLIS      CLEAR     42  34  73 SE9       29.97S
FORT MEADE*    CLEAR     34  28  80 SE3       29.98F

$$

MDZ012-015-019>023-120200-
MARYLAND EASTERN SHORE

CITY           SKY/WX    TMP DP  RH WIND       PRES   REMARKS
OCEAN CITY     CLEAR     32  28  85 CALM      30.01F
SALISBURY      CLEAR     30  27  88 SE3       30.00F
BAY BRIDGE AP* CLEAR     39  30  70 S9        29.98S
CAMBRIDGE*     PTCLDY    34  30  86 SE7       29.99F
EASTON*        CLEAR     37  30  75 CALM      30.02F

$$

MDZ017>025-120200-
SOUTHERN MARYLAND

CITY           SKY/WX    TMP DP  RH WIND       PRES   REMARKS
PATUXENT RIVER PTCLDY    40  30  67 S6        29.98S
ST INIGOES     CLEAR     41  30  65 SE5       29.97F
LEONARDTOWN*   CLEAR     37  32  81 SE3       29.99S

$$

MDZ003>005-120200-
NORTH CENTRAL MARYLAND

CITY           SKY/WX    TMP DP  RH WIND       PRES   REMARKS
FREDERICK*     CLEAR     39  23  52 CALM      29.95F
HAGERSTOWN APT CLOUDY    42  24  49 SE12      29.87F
WESTMINSTER*   MOCLDY    37  28  70 SE7       29.91F

$$

MDZ501>502-120200-
WESTERN MARYLAND

CITY           SKY/WX    TMP DP  RH WIND       PRES   REMARKS
OAKLAND*       CLEAR     34  18  51 SE9       29.72F WCI  26
CUMBERLAND*    CLEAR     41  23  48 CALM      29.87F

$$

VAZ025>031-120200-
SHENANDOAH VALLEY

CITY           SKY/WX    TMP DP  RH WIND       PRES   REMARKS
WINCHESTER*    CLEAR     39  25  56 S7        29.87F
FRONT ROYAL*   FAIR      39  27  60 CALM      29.87F
LURAY*         CLEAR     32  28  86 CALM      29.87F
NEW MARKET*    CLEAR     30  25  82 CALM      29.86F
STAUNTON*      CLEAR     37  26  63 S6        29.89F
WAYNESBORO*    CLEAR     36  25  65 SE3       29.88S

$$

WVZ021-048>050-054>055-120200-
EASTERN WEST VIRGINIA PANHANDLE

CITY           SKY/WX    TMP DP  RH WIND       PRES   REMARKS
MARTINSBURG    CLEAR     38  23  55 SE6       29.87F
PETERSBURG*    CLEAR     30  24  77 CALM      29.83F

$$

VAZ036>039-050-120200-
CENTRAL FOOTHILLS

CITY           SKY/WX    TMP DP  RH WIND       PRES   REMARKS
CHARLOTTESVILL CLEAR     41  26  55 S6        29.92S
CULPEPER*      FAIR      35  25  66 CALM      29.94F
ORANGE*        CLEAR     36  27  69 CALM      29.93S
GORDONSVILLE*  CLEAR     33  28  81 CALM      29.93S
WARRENTON*     PTCLDY    41  23  48 SE5       29.92F

$$

VAZ055>057-120200-
NORTH AND CENTRAL PIEDMONT

CITY           SKY/WX    TMP DP  RH WIND       PRES   REMARKS
FREDERICKSBRG* PTCLDY    40  31  68 S7        29.95S
STAFFORD*      PTCLDY    38  27  65 SE5       29.99S

$$

NCZ024-NYZ072-PAZ021-071-VAZ022-071-120200-
OTHER REGIONAL OBSERVATIONS

CITY           SKY/WX    TMP DP  RH WIND       PRES   REMARKS
NEW YORK CITY  MOCLDY    38  21  50 W6        30.03S
PHILADELPHIA   CLOUDY    35  24  64 SE6       30.00S
PITTSBURGH     CLOUDY    36  22  56 CALM      29.77F
ROANOKE        CLEAR     43  28  55 CALM      29.92S
RICHMOND       CLEAR     36  30  79 SE9       29.96F WCI  29
RALEIGH        PTCLDY    43  29  57 S8        29.99F

$$

ANZ530>537-120200-
MARINE OBSERVATIONS

STATION/POSITION TIME  TEMP    WIND        PRES
                       AIR SEA DIR/SP/G
                 (UTC) (F)     (DEG/KT/KT) (MB)
THOMAS PT LIGHT  0000   43 48  160/ 18/ 20   N/A
BALT KEY BRIDGE  0048   42     140/ 14/ 15 1014.4F
COVE POINT       0048   45     190/ 17/ 18 1015.8F
LEWISETTA        0048   41 44  180/  5/  6 1015.3F
SOLOMONS ISLAND  0048   42 48  170/  7/  9 1014.9F
PINEY POINT      0042          180/ 12/ 13   N/A

$$





USA.gov is the U.S. government's official web portal to all federal, state and local government web resources and services.